Temperature
14 15 16 16 17 17 17 17 18 17 17 16 15 14 14 13 13 13 12 12 12 12 12 12 11 11 11 10 10 10 10 9 9 9 9 9 10 11 11 10 10 10 10
13 13 15 15 16 16 17 17 17 16 16 15 15 14 13 12 12 12 12 12 12 11 11 11 11 10 10 10 9 9 8 8 8 7 8 9 10 10 10 9 9 10 10
13 13 14 15 16 16 16 16 16 15 15 14 14 13 12 12 12 11 11 11 11 11 10 10 10 9 9 9 8 7 7 6 6 6 6 7 8 6 7 8 8 8 8
13 12 13 14 15 15 15 15 15 14 14 13 13 12 12 12 11 11 11 10 10 10 10 9 9 8 8 7 7 6 6 5 5 5 5 4 4 5 6 6 7 7 6
12 12 13 14 14 14 14 14 13 13 13 13 12 12 12 11 11 10 10 10 10 9 9 8 8 7 7 6 6 6 6 5 4 4 3 3 4 4 4 5 5 5 5
11 11 12 13 13 13 13 13 13 13 12 12 12 11 11 10 10 10 10 9 9 9 8 8 7 6 6 6 6 5 5 5 4 3 3 2 2 2 3 3 3 4 4
11 10 11 12 12 12 12 12 12 12 11 11 11 11 10 10 10 9 9 9 8 8 7 7 6 6 5 5 5 5 4 4 3 3 2 1 1 1 1 1 1 2 2
11 10 11 11 12 12 12 11 11 11 11 11 10 10 10 9 9 9 8 8 7 6 6 5 5 5 4 4 4 4 3 3 2 1 0 -0 -0 -0 -1 -1 -0 -0 1
10 10 10 10 11 11 11 11 11 10 10 10 9 9 9 8 8 8 7 6 6 5 5 4 4 4 4 3 3 3 2 1 0 -0 -1 -1 -1 -2 -2 -2 -2 -2 -1
10 10 10 10 10 10 10 10 10 9 9 9 8 8 7 7 7 6 6 5 4 4 4 3 3 3 3 2 2 1 1 -0 -1 -1 -2 -2 -2 -2 -3 -3 -3 -3 -3
10 9 9 9 10 10 9 9 9 8 8 8 7 7 6 6 5 5 4 4 3 3 3 3 2 2 1 1 1 -0 -1 -1 -2 -2 -2 -3 -3 -3 -3 -4 -4 -4 -4
10 9 9 9 9 9 8 8 8 7 7 7 6 6 5 5 4 4 3 3 3 2 2 1 1 1 0 -0 -1 -2 -2 -3 -3 -3 -3 -4 -4 -4 -4 -4 -4 -4 -4
9 8 8 8 8 8 7 7 7 7 6 6 5 5 4 4 3 3 3 2 2 1 1 0 0 -0 -1 -1 -2 -3 -3 -3 -4 -4 -4 -5 -5 -5 -5 -5 -5 -5 -5
9 8 8 8 7 7 7 6 6 6 5 5 4 4 3 3 2 2 2 1 1 1 0 -0 -1 -1 -1 -2 -3 -3 -4 -4 -4 -5 -5 -5 -6 -6 -6 -6 -6 -6 -6
8 8 8 7 7 7 6 6 5 5 5 4 3 3 2 2 2 1 1 1 0 -0 -1 -1 -1 -2 -2 -3 -3 -4 -5 -6 -6 -6 -6 -6 -7 -7 -7 -7 -7 -7 -6
8 8 7 7 6 6 6 5 5 4 4 3 2 2 2 1 1 1 0 -0 -0 -1 -1 -2 -3 -3 -4 -4 -4 -5 -6 -7 -6 -6 -6 -7 -7 -7 -7 -7 -7 -7 -7
8 8 7 7 6 6 5 5 4 4 3 2 2 1 1 1 0 -0 -0 -1 -1 -2 -2 -3 -3 -4 -4 -4 -5 -6 -7 -7 -7 -7 -7 -7 -7 -7 -7 -7 -7 -7 -7
9 8 7 6 6 5 4 4 3 3 2 1 1 1 0 0 -0 -1 -1 -2 -2 -3 -4 -4 -4 -5 -5 -5 -6 -8 -8 -8 -7 -8 -8 -8 -7 -8 -8 -8 -7 -7 -7
9 8 7 6 5 4 4 3 2 2 1 1 1 0 -0 -1 -1 -1 -2 -3 -3 -4 -4 -5 -5 -6 -6 -7 -8 -8 -8 -8 -8 -8 -8 -8 -8 -8 -8 -8 -8 -8 -8
8 7 6 5 4 4 3 2 2 1 1 0 -0 -0 -1 -1 -2 -2 -3 -3 -4 -4 -5 -6 -6 -7 -7 -8 -8 -9 -9 -8 -8 -8 -8 -8 -8 -8 -8 -8 -9 -9 -9
7 6 5 4 3 3 2 2 1 1 0 -0 -1 -1 -2 -2 -3 -3 -4 -4 -5 -5 -6 -7 -7 -8 -8 -8 -8 -9 -9 -9 -9 -8 -8 -8 -8 -9 -9 -9 -9 -10 -10
5 5 4 3 2 2 2 1 1 0 -0 -1 -1 -2 -2 -3 -3 -4 -4 -5 -5 -6 -7 -7 -8 -8 -8 -8 -9 -9 -9 -9 -9 -9 -9 -9 -9 -9 -9 -10 -10 -10 -10
5 4 3 2 2 2 1 0 0 -0 -1 -1 -2 -2 -3 -3 -4 -4 -5 -5 -6 -7 -7 -8 -8 -8 -8 -9 -9 -9 -9 -9 -9 -9 -9 -9 -9 -10 -10 -10 -11 -11 -11
4 3 2 2 1 1 0 -0 -0 -1 -1 -2 -2 -3 -3 -4 -4 -5 -5 -6 -7 -8 -8 -8 -8 -9 -9 -9 -9 -9 -9 -9 -9 -9 -9 -9 -10 -10 -11 -11 -11 -11 -11
3 2 1 1 0 -0 -0 -1 -1 -1 -2 -3 -3 -3 -4 -4 -5 -5 -6 -7 -7 -8 -9 -9 -9 -10 -10 -10 -10 -10 -10 -10 -10 -10 -10 -10 -10 -11 -11 -11 -11 -11 -11
2 1 1 0 -0 -1 -1 -1 -2 -2 -3 -3 -4 -4 -4 -5 -6 -6 -7 -8 -8 -9 -9 -9 -10 -10 -10 -10 -10 -10 -10 -10 -10 -10 -11 -11 -11 -11 -12 -12 -12 -12 -12
Wind_Speed
5 6 7 7 8 9 10 11 11 10 9 8 9 9 9 9 10 10 13 13 13 12 10 7 8 8 7 8 10 9 12 11 11 12 14 15 15 14 13 12 14 16 17
8 8 9 9 11 11 12 13 13 13 12 11 10 10 11 10 10 9 12 13 13 12 9 10 8 8 7 9 10 10 9 9 11 11 14 11 13 10 12 15 16 17 16
12 11 11 11 11 12 12 12 14 14 14 13 11 10 9 9 8 9 8 11 12 12 11 10 9 8 8 8 9 10 10 10 11 10 9 10 10 17 13 14 15 17 16
13 12 12 12 11 11 12 13 14 14 13 12 11 12 10 9 8 6 7 8 11 11 11 10 9 9 8 9 9 9 10 10 10 10 8 10 14 12 15 15 15 18 18
13 13 12 12 11 11 11 12 14 14 13 13 12 12 11 9 6 6 7 7 7 9 10 10 9 9 8 9 10 10 10 9 9 9 10 12 12 15 17 20 18 16 16
13 13 12 11 11 10 10 11 13 13 13 12 12 12 11 9 8 8 7 6 6 6 10 10 9 9 8 9 10 10 11 9 10 10 10 11 11 13 15 19 21 20 18
14 14 14 12 12 11 10 10 12 12 11 12 11 11 10 9 8 7 7 7 6 7 10 10 9 9 9 10 10 10 10 10 10 11 10 11 11 12 13 16 19 22 21
14 14 13 12 12 11 10 11 11 11 10 10 10 9 8 6 6 7 7 7 6 7 9 10 10 10 10 10 10 9 10 10 11 12 13 11 11 11 12 14 17 21 22
16 14 13 12 12 11 10 10 11 10 9 9 9 8 8 7 7 7 6 6 6 7 9 9 10 11 11 11 12 10 11 12 12 13 14 12 12 12 13 14 14 17 22
16 14 13 12 10 10 10 10 10 10 8 7 7 6 7 7 6 6 6 6 7 8 9 10 11 12 12 12 12 12 11 13 14 12 15 15 13 14 14 14 15 15 18
16 14 12 11 11 10 10 10 9 9 8 7 6 6 6 6 5 5 6 7 7 9 10 11 11 12 12 13 13 13 14 15 16 15 16 17 18 15 15 15 15 16 16
15 14 13 12 11 11 10 9 8 8 7 6 5 5 5 5 5 5 6 7 8 9 10 10 11 12 13 14 14 15 15 16 17 18 18 19 16 19 17 16 17 17 18
15 14 13 13 12 11 10 9 8 7 6 5 4 4 4 4 5 6 7 8 9 9 10 10 11 12 13 14 14 15 17 18 18 18 19 19 19 20 17 19 18 17 17
15 15 14 13 12 11 9 8 8 6 5 4 3 3 4 5 6 6 7 8 9 10 10 11 12 13 14 14 15 17 19 19 19 19 19 19 19 20 21 19 20 19 20
15 15 15 14 12 11 9 8 7 6 4 3 2 3 4 5 6 7 8 8 9 10 11 12 13 14 13 13 17 19 19 20 20 19 19 19 20 23 21 19 21 21 20
15 15 15 14 13 11 10 8 7 5 3 2 1 3 4 5 7 8 9 9 10 11 12 13 14 15 13 18 22 21 19 19 20 20 20 19 20 22 27 28 28 28 25
14 15 15 14 12 10 9 8 6 5 3 1 2 3 5 6 8 8 9 10 11 12 13 14 15 16 17 20 22 24 21 19 18 19 19 18 19 24 22 26 30 29 30
12 13 13 12 11 10 8 7 6 4 2 1 2 4 6 7 9 9 10 11 11 12 14 15 16 17 17 20 22 25 21 19 18 19 20 21 22 22 25 26 27 26 26
10 12 12 12 11 10 8 7 5 3 1 2 3 5 7 8 10 11 12 12 12 14 14 15 16 17 18 19 22 24 18 17 20 19 20 22 23 27 32 28 28 28 26
11 12 12 12 11 9 8 6 4 2 1 3 4 6 7 9 10 11 12 12 13 14 15 15 15 16 17 19 22 23 15 18 18 19 20 23 25 30 34 28 27 27 26
12 13 12 10 9 8 7 5 2 1 2 3 5 7 8 9 11 11 12 13 13 14 15 16 15 15 16 19 21 23 16 18 20 19 19 19 29 33 35 32 24 27 29
12 12 11 9 8 7 5 3 1 1 2 4 6 8 9 9 9 11 12 13 14 15 15 15 15 12 14 17 20 24 24 24 21 20 19 21 33 35 34 27 27 33 29
11 10 10 9 7 5 3 1 1 2 4 6 8 9 10 10 10 11 12 12 12 12 13 14 14 14 14 15 22 24 27 29 21 19 26 31 33 30 24 26 31 27 18
10 9 9 8 6 5 3 1 1 2 5 7 9 9 10 10 10 10 10 11 12 12 13 14 15 16 15 15 16 18 20 23 21 20 24 28 27 23 24 23 20 17 18
8 8 8 7 6 5 3 1 1 3 6 8 8 9 9 10 11 10 10 12 11 12 15 15 15 16 17 19 27 24 20 20 21 23 18 17 17 17 18 18 18 18 18
9 8 7 7 6 4 2 2 3 5 7 8 8 8 8 9 10 11 12 12 13 18 20 20 20 18 21 29 30 31 31 31 29 22 16 16 17 18 19 19 19 19 18
Wind_Direction
99 81 73 69 70 65 64 67 74 87 102 108 108 101 91 84 76 66 61 58 54 50 44 35 28 17 13 3 354 346 333 328 330 316 312 303 292 293 291 298 300 296 293
122 100 90 80 75 72 71 71 73 78 83 89 92 95 93 83 77 69 59 53 50 45 38 31 23 15 3 1 356 352 338 329 331 325 319 315 312 305 320 307 297 298 298
133 118 102 90 83 75 74 77 78 82 87 94 100 102 97 91 76 64 57 48 45 42 36 28 18 10 3 356 351 348 340 330 327 331 323 319 314 319 298 309 309 304 303
137 126 116 103 91 84 83 84 85 85 86 91 93 94 90 82 71 61 58 53 44 37 29 22 13 6 359 353 348 346 335 329 326 327 319 310 305 306 306 306 305 307 305
144 134 125 114 103 95 90 89 88 83 82 83 87 87 85 84 77 65 53 45 41 34 23 15 8 2 357 352 345 341 337 330 325 321 315 310 308 301 305 307 307 303 300
150 140 133 125 113 106 99 97 93 86 82 81 81 82 84 80 71 56 42 32 28 23 19 8 5 0 355 347 342 336 334 329 323 316 310 309 305 305 305 303 306 305 304
159 153 148 138 128 120 111 106 100 93 89 86 82 81 79 74 62 47 34 23 16 13 8 3 358 356 348 341 338 331 327 321 318 311 311 305 299 300 300 300 302 303 303
168 163 154 145 136 128 122 115 107 102 98 91 86 80 74 67 57 43 31 23 12 6 359 354 349 346 341 336 334 322 320 316 312 309 309 303 300 301 300 300 303 303 303
173 166 157 149 142 135 129 124 118 111 104 97 90 80 70 62 52 39 29 20 10 356 352 347 342 339 336 333 328 320 317 317 313 311 308 303 301 299 297 296 294 296 300
173 167 161 152 144 135 131 128 123 116 108 98 86 76 65 55 44 33 25 13 3 354 347 343 338 334 331 329 324 318 316 314 312 308 304 303 301 301 298 294 293 290 288
174 170 162 152 143 140 139 134 128 121 111 100 89 77 61 46 35 26 16 4 355 349 344 338 331 328 326 325 321 317 316 313 310 308 305 304 303 301 299 298 294 290 288
174 168 159 152 150 148 147 142 135 125 113 101 87 71 54 36 24 17 7 356 349 343 337 329 324 324 323 322 318 316 314 311 309 308 307 306 306 303 302 299 297 295 292
170 165 162 160 158 154 151 145 137 127 117 103 84 64 41 22 12 6 357 349 342 334 329 325 323 322 321 318 315 315 313 310 308 308 307 307 307 304 304 303 300 298 298
171 169 167 165 161 157 152 145 137 130 120 104 76 45 21 7 360 355 347 339 332 326 324 322 320 318 318 314 318 318 313 310 309 307 306 306 306 306 306 304 303 304 302
173 173 171 167 162 157 151 144 139 135 127 109 66 25 1 355 350 345 336 328 322 319 318 317 318 318 315 317 321 316 313 311 309 308 308 307 306 303 302 303 305 305 302
176 174 172 169 165 159 151 147 144 139 132 110 31 0 349 347 342 334 325 319 317 318 318 318 318 317 314 317 317 317 313 311 309 310 310 309 306 307 307 306 305 303 301
174 174 174 169 161 154 151 151 146 142 136 89 1 351 345 338 331 323 317 316 317 317 317 317 317 315 314 316 318 318 315 310 309 310 310 310 309 311 309 309 308 306 302
169 169 165 156 148 145 145 141 141 144 142 26 353 347 336 327 322 318 317 317 316 314 314 315 314 312 311 316 318 318 316 311 309 309 309 308 309 311 313 312 311 309 307
156 154 150 145 144 145 144 145 149 153 146 1 346 336 327 320 318 317 317 316 314 312 313 312 311 310 312 315 317 319 317 312 311 311 309 309 309 311 315 315 313 312 310
136 137 138 138 140 142 147 156 158 157 17 347 329 322 318 314 312 311 311 311 311 309 311 309 310 310 309 312 316 320 316 314 314 312 311 310 311 313 317 318 316 313 313
133 135 137 139 140 144 153 155 148 60 356 325 316 314 312 309 306 306 307 308 309 309 310 311 312 310 310 314 318 321 321 317 315 314 314 314 315 316 318 319 315 312 314
137 140 138 134 137 146 149 144 120 23 329 316 311 308 307 305 301 306 308 311 313 313 314 315 314 313 315 316 318 320 319 317 314 313 313 314 316 318 320 319 315 316 317
145 145 141 137 139 140 140 145 72 342 318 309 305 304 303 302 303 307 311 314 315 314 315 315 316 318 320 319 319 319 319 319 317 311 312 315 317 320 319 316 318 319 317
151 149 146 146 148 150 153 155 329 316 303 299 300 301 303 306 310 310 309 313 315 314 314 316 317 319 319 319 322 320 319 319 317 315 316 318 318 319 318 319 319 319 316
154 154 157 158 158 161 172 200 285 288 288 292 295 300 303 306 309 308 308 308 305 305 309 311 313 315 315 315 317 319 319 319 317 321 320 321 322 322 322 321 321 320 319
155 157 161 162 160 168 195 238 260 267 278 289 299 304 306 308 309 311 309 300 297 302 304 303 304 307 307 311 316 319 319 320 323 325 321 321 321 321 321 321 320 320 320
Height
1480 1479 1479 1480 1480 1481 1481 1481 1480 1480 1481 1482 1483 1484 1485 1487 1488 1488 1489 1489 1488 1488 1487 1485 1483 1481 1479 1476 1473 1470 1466 1463 1459 1454 1448 1443 1440 1437 1434 1431 1428 1425 1421
1479 1479 1480 1481 1482 1482 1482 1482 1482 1482 1483 1484 1484 1485 1486 1487 1488 1489 1490 1489 1489 1488 1486 1484 1482 1479 1477 1474 1470 1466 1462 1459 1456 1451 1444 1437 1434 1431 1429 1425 1422 1418 1415
1479 1480 1481 1482 1483 1483 1484 1484 1484 1484 1485 1486 1487 1487 1488 1489 1490 1491 1490 1490 1489 1487 1485 1483 1480 1477 1474 1470 1467 1463 1459 1456 1453 1450 1447 1439 1430 1426 1420 1418 1416 1412 1408
1479 1480 1481 1483 1483 1484 1485 1485 1486 1486 1487 1488 1489 1490 1491 1491 1491 1491 1491 1490 1488 1486 1483 1480 1477 1474 1471 1467 1464 1460 1457 1453 1449 1446 1443 1440 1434 1426 1414 1412 1409 1405 1400
1478 1479 1481 1482 1484 1485 1486 1487 1488 1488 1489 1491 1491 1492 1492 1492 1492 1492 1491 1489 1487 1484 1481 1477 1474 1471 1467 1464 1461 1457 1454 1450 1446 1442 1439 1434 1430 1424 1416 1404 1400 1397 1394
1478 1479 1481 1482 1484 1486 1487 1489 1489 1490 1491 1492 1493 1493 1493 1493 1492 1491 1490 1487 1484 1481 1478 1475 1471 1468 1465 1461 1458 1454 1450 1447 1442 1438 1434 1430 1425 1420 1413 1403 1393 1387 1384
1477 1479 1480 1482 1484 1486 1488 1489 1490 1491 1492 1493 1493 1493 1493 1492 1491 1490 1488 1485 1482 1479 1476 1472 1469 1466 1462 1459 1455 1451 1447 1442 1438 1433 1429 1424 1420 1415 1409 1402 1391 1381 1374
1476 1479 1480 1482 1484 1486 1488 1490 1491 1491 1492 1493 1493 1492 1492 1491 1490 1488 1486 1483 1480 1477 1473 1470 1467 1463 1459 1455 1451 1446 1442 1437 1433 1428 1423 1418 1414 1409 1404 1398 1390 1378 1366
1475 1478 1480 1482 1484 1486 1488 1490 1491 1491 1492 1492 1492 1491 1490 1489 1488 1486 1483 1480 1477 1474 1471 1467 1464 1460 1456 1451 1446 1442 1437 1432 1428 1423 1418 1413 1408 1403 1398 1393 1387 1380 1366
1473 1477 1479 1481 1483 1485 1487 1489 1490 1491 1491 1491 1491 1490 1489 1487 1485 1483 1481 1478 1474 1471 1468 1464 1461 1456 1452 1447 1442 1437 1432 1427 1422 1417 1412 1407 1402 1396 1391 1385 1380 1374 1366
1471 1475 1477 1480 1482 1485 1487 1488 1489 1490 1490 1490 1489 1488 1487 1485 1483 1480 1478 1475 1472 1468 1465 1461 1457 1452 1447 1442 1437 1432 1426 1421 1416 1411 1406 1400 1395 1389 1384 1378 1372 1366 1360
1469 1473 1475 1478 1481 1484 1486 1487 1488 1488 1488 1488 1487 1486 1485 1482 1480 1477 1475 1472 1469 1465 1461 1457 1452 1448 1442 1437 1431 1426 1421 1415 1410 1404 1399 1393 1388 1382 1376 1370 1364 1358 1352
1467 1470 1473 1476 1479 1482 1484 1486 1486 1487 1487 1486 1485 1484 1482 1480 1477 1474 1472 1469 1465 1462 1457 1453 1448 1442 1437 1431 1425 1420 1415 1409 1404 1398 1392 1386 1380 1374 1368 1363 1356 1350 1343
1464 1467 1471 1474 1477 1480 1483 1484 1485 1485 1485 1484 1483 1481 1479 1477 1474 1471 1469 1465 1462 1458 1453 1448 1443 1437 1431 1425 1420 1414 1408 1402 1396 1391 1385 1379 1373 1367 1361 1355 1349 1342 1335
1461 1464 1468 1472 1475 1478 1480 1482 1483 1483 1482 1482 1480 1478 1476 1474 1471 1468 1465 1462 1458 1453 1448 1443 1437 1432 1426 1420 1413 1406 1400 1394 1388 1383 1377 1372 1366 1360 1354 1349 1342 1335 1327
1458 1462 1466 1469 1473 1476 1478 1480 1481 1481 1480 1479 1477 1475 1473 1471 1468 1465 1462 1458 1453 1448 1443 1437 1431 1426 1420 1414 1407 1400 1393 1387 1381 1375 1369 1363 1358 1352 1347 1341 1335 1329 1321
1456 1459 1463 1467 1470 1474 1476 1478 1478 1478 1477 1476 1474 1472 1470 1468 1465 1462 1458 1453 1448 1443 1437 1432 1426 1419 1413 1406 1399 1393 1387 1381 1375 1369 1362 1356 1351 1345 1339 1332 1326 1319 1313
1454 1458 1462 1465 1469 1472 1474 1476 1476 1475 1474 1473 1471 1470 1467 1465 1462 1458 1454 1449 1443 1438 1432 1426 1420 1413 1406 1400 1393 1387 1381 1375 1369 1364 1357 1351 1344 1338 1332 1324 1315 1308 1302
1454 1457 1460 1464 1467 1470 1472 1473 1473 1472 1471 1470 1469 1467 1464 1461 1458 1454 1449 1444 1438 1432 1426 1420 1413 1406 1400 1394 1388 1382 1375 1368 1363 1357 1351 1345 1338 1332 1325 1317 1307 1298 1291
1453 1455 1459 1463 1466 1468 1470 1470 1470 1470 1469 1468 1466 1464 1461 1458 1454 1450 1445 1439 1433 1427 1420 1414 1408 1401 1394 1389 1383 1377 1371 1363 1356 1350 1344 1338 1332 1325 1318 1310 1301 1290 1281
1452 1455 1458 1462 1464 1466 1467 1468 1468 1467 1466 1465 1463 1461 1458 1454 1450 1445 1440 1434 1427 1421 1414 1408 1402 1396 1390 1384 1378 1372 1366 1359 1351 1343 1337 1331 1325 1318 1311 1303 1295 1285 1276
1452 1455 1458 1460 1462 1464 1465 1465 1465 1465 1464 1462 1460 1457 1454 1450 1445 1440 1434 1428 1422 1415 1408 1402 1396 1391 1386 1379 1373 1367 1361 1355 1347 1339 1331 1324 1318 1311 1303 1295 1287 1279 1270
1451 1454 1456 1459 1460 1462 1462 1463 1463 1462 1461 1459 1456 1453 1450 1445 1440 1435 1429 1423 1417 1410 1404 1397 1391 1385 1380 1374 1368 1362 1355 1349 1342 1334 1326 1319 1311 1304 1295 1288 1281 1273 1264
1451 1453 1455 1457 1458 1459 1460 1460 1460 1459 1457 1455 1452 1449 1444 1440 1435 1429 1423 1418 1412 1406 1400 1394 1387 1380 1374 1369 1362 1356 1349 1342 1336 1328 1320 1313 1306 1298 1291 1283 1275 1268 1260
1449 1451 1453 1455 1456 1456 1457 1457 1456 1455 1453 1451 1447 1443 1439 1434 1429 1423 1418 1413 1408 1403 1397 1390 1384 1377 1370 1364 1359 1353 1345 1338 1331 1323 1315 1308 1300 1293 1285 1278 1270 1263 1255
1447 1449 1451 1452 1453 1454 1454 1454 1453 1451 1449 1446 1442 1438 1433 1428 1423 1417 1412 1407 1402 1397 1392 1386 1381 1374 1368 1361 1354 1348 1341 1333 1327 1319 1311 1304 1297 1290 1282 1274 1265 1258 1250